| time (UTC) | temp F | wind direction | speed knots | gust knots | rain 1hr in | rain 24hr in | rain mn in | humidity % | barometer mb |
| 20260510203109 | 64 | 360 | 1.7 | 9.6 | 0.00 | 0.00 | 0.00 | 43 | 1020.7 |
| 20260510201547 | 64 | 360 | 5.2 | 8.7 | 0.00 | 0.00 | 0.00 | 39 | 1020.8 |
| 20260510200002 | 64 | 360 | 3.5 | 10.4 | 0.00 | 0.00 | 0.00 | 40 | 1020.9 |
| 20260510194528 | 64 | 360 | 4.3 | 7.8 | 0.00 | 0.00 | 0.00 | 43 | 1021.1 |
| 20260510193049 | 63 | 360 | 1.7 | 7.0 | 0.00 | 0.00 | 0.00 | 45 | 1020.9 |
| 20260510191509 | 63 | 360 | 2.6 | 5.2 | 0.00 | 0.00 | 0.00 | 44 | 1021.1 |
| 20260510190045 | 63 | 360 | 0.9 | 7.0 | 0.00 | 0.00 | 0.00 | 42 | 1021.1 |
| 20260510184531 | 63 | 360 | 6.1 | 10.4 | 0.00 | 0.00 | 0.00 | 42 | 1020.9 |
| 20260510183016 | 63 | 360 | 1.7 | 5.2 | 0.00 | 0.00 | 0.00 | 47 | 1021.1 |
| 20260510181544 | 63 | 360 | 2.6 | 5.2 | 0.00 | 0.00 | 0.00 | 45 | 1021.1 |
| 20260510180024 | 63 | 360 | 1.7 | 7.0 | 0.00 | 0.00 | 0.00 | 45 | 1021.2 |
| 20260510174655 | 63 | 360 | 1.7 | 7.8 | 0.00 | 0.00 | 0.00 | 43 | 1021.1 |
| 20260510173054 | 63 | 360 | 0.9 | 4.3 | 0.00 | 0.00 | 0.00 | 48 | 1020.9 |
| 20260510171603 | 62 | 360 | 4.3 | 13.0 | 0.00 | 0.00 | 0.00 | 43 | 1021.1 |
| 20260510170053 | 63 | 360 | 6.1 | 10.4 | 0.00 | 0.00 | 0.00 | 42 | 1021.2 |
| 20260510164514 | 63 | 360 | 1.7 | 7.0 | 0.00 | 0.00 | 0.00 | 44 | 1021.0 |
| 20260510163013 | 63 | 360 | 3.5 | 9.6 | 0.00 | 0.00 | 0.00 | 42 | 1020.9 |
| 20260510161555 | 62 | 360 | 4.3 | 10.4 | 0.00 | 0.00 | 0.00 | 43 | 1020.7 |
| 20260510160017 | 62 | 360 | 3.5 | 11.3 | 0.00 | 0.00 | 0.00 | 42 | 1020.6 |
| 20260510154549 | 61 | 360 | 2.6 | 9.6 | 0.00 | 0.00 | 0.00 | 45 | 1020.5 |
| 20260510153041 | 60 | 360 | 3.5 | 11.3 | 0.00 | 0.00 | 0.00 | 47 | 1020.3 |
| 20260510151528 | 59 | 360 | 5.2 | 9.6 | 0.00 | 0.00 | 0.00 | 46 | 1020.3 |
| 20260510150049 | 59 | 360 | 2.6 | 7.0 | 0.00 | 0.00 | 0.00 | 47 | 1020.1 |
| 20260510144512 | 58 | 360 | 1.7 | 6.1 | 0.00 | 0.00 | 0.00 | 47 | 1020.4 |
| 20260510143002 | 58 | 360 | 1.7 | 5.2 | 0.00 | 0.00 | 0.00 | 48 | 1020.4 |
| 20260510141555 | 57 | 360 | 0.9 | 8.7 | 0.00 | 0.00 | 0.00 | 50 | 1020.4 |
| 20260510140029 | 57 | 360 | 1.7 | 8.7 | 0.00 | 0.00 | 0.00 | 51 | 1020.3 |
| 20260510134550 | 57 | 360 | 3.5 | 10.4 | 0.00 | 0.00 | 0.00 | 49 | 1020.1 |
| 20260510133043 | 57 | 360 | 6.1 | 11.3 | 0.00 | 0.00 | 0.00 | 50 | 1020.0 |
| 20260510131546 | 56 | 360 | 4.3 | 9.6 | 0.00 | 0.00 | 0.00 | 51 | 1019.6 |
| 20260510130126 | 56 | 360 | 2.6 | 7.8 | 0.00 | 0.00 | 0.00 | 53 | 1019.2 |
| 20260510124506 | 56 | 360 | 3.5 | 9.6 | 0.00 | 0.00 | 0.00 | 51 | 1019.1 |
| 20260510123051 | 56 | 16 | 2.6 | 9.6 | 0.00 | 0.00 | 0.00 | 53 | 1018.4 |
| 20260510121554 | 56 | 35 | 3.5 | 9.6 | 0.00 | 0.00 | 0.00 | 53 | 1018.3 |
| 20260510120025 | 56 | 360 | 2.6 | 8.7 | 0.00 | 0.00 | 0.00 | 53 | 1017.9 |
| 20260510114518 | 56 | 360 | 2.6 | 7.0 | 0.00 | 0.00 | 0.00 | 52 | 1017.5 |
| 20260510113043 | 56 | 360 | 2.6 | 7.8 | 0.00 | 0.00 | 0.00 | 53 | 1017.2 |
| 20260510111542 | 56 | 360 | 1.7 | 8.7 | 0.00 | 0.00 | 0.00 | 53 | 1017.3 |
| 20260510110001 | 56 | 360 | 0.9 | 5.2 | 0.00 | 0.00 | 0.00 | 53 | 1016.7 |
| 20260510104601 | 57 | 360 | 3.5 | 8.7 | 0.00 | 0.00 | 0.00 | 54 | 1016.9 |
| 20260510103038 | 57 | 360 | 1.7 | 7.0 | 0.00 | 0.00 | 0.00 | 55 | 1016.4 |
| 20260510101529 | 57 | 360 | 2.6 | 9.6 | 0.00 | 0.00 | 0.00 | 54 | 1016.3 |
| 20260510100042 | 58 | 28 | 2.6 | 11.3 | 0.00 | 0.00 | 0.00 | 55 | 1015.9 |
| 20260510094549 | 58 | 360 | 4.3 | 10.4 | 0.00 | 0.00 | 0.00 | 59 | 1015.8 |
| 20260510093110 | 59 | 360 | 3.5 | 9.6 | 0.00 | 0.00 | 0.00 | 64 | 1015.7 |
| 20260510091523 | 59 | 360 | 4.3 | 7.8 | 0.00 | 0.00 | 0.00 | 68 | 1015.4 |
| 20260510090024 | 60 | 360 | 1.7 | 4.3 | 0.00 | 0.00 | 0.00 | 66 | 1015.3 |
| 20260510084549 | 60 | 17 | 0.9 | 4.3 | 0.00 | 0.00 | 0.00 | 65 | 1015.1 |
| 20260510083013 | 61 | 351 | 3.5 | 7.0 | 0.00 | 0.00 | 0.00 | 65 | 1014.8 |
| 20260510081504 | 61 | 360 | 1.7 | 3.5 | 0.00 | 0.00 | 0.00 | 65 | 1014.8 |
| 20260510080013 | 61 | 360 | 1.7 | 5.2 | 0.00 | 0.00 | 0.00 | 64 | 1014.6 |
| 20260510074529 | 61 | 360 | 0.9 | 3.5 | 0.00 | 0.00 | 0.00 | 64 | 1014.2 |
| 20260510073114 | 62 | 360 | 1.7 | 4.3 | 0.00 | 0.00 | 0.00 | 64 | 1014.3 |
| 20260510071546 | 62 | 360 | 1.7 | 4.3 | 0.00 | 0.00 | 0.00 | 63 | 1014.0 |
| 20260510070036 | 63 | 360 | 1.7 | 3.5 | 0.00 | 0.00 | 0.00 | 61 | 1013.7 |
| 20260510064540 | 63 | 355 | 0.0 | 1.7 | 0.00 | 0.01 | 0.00 | 61 | 1013.5 |
| 20260510063028 | 64 | 360 | 1.7 | 2.6 | 0.00 | 0.01 | 0.00 | 59 | 1013.7 |
| 20260510061556 | 64 | 360 | 1.7 | 4.3 | 0.00 | 0.01 | 0.00 | 59 | 1013.6 |
| 20260510060012 | 64 | 360 | 1.7 | 4.3 | 0.00 | 0.01 | 0.00 | 62 | 1013.7 |
| 20260510054526 | 63 | 360 | 0.9 | 2.6 | 0.00 | 0.01 | 0.00 | 66 | 1013.6 |
| 20260510053103 | 62 | 360 | 1.7 | 3.5 | 0.00 | 0.01 | 0.00 | 69 | 1013.4 |
| 20260510051508 | 63 | 360 | 0.9 | 1.7 | 0.00 | 0.01 | 0.00 | 76 | 1013.1 |
| 20260510050107 | 63 | 174 | 0.0 | 1.7 | 0.00 | 0.01 | 0.00 | 74 | 1012.7 |
| 20260510044602 | 64 | 360 | 0.0 | 0.9 | 0.00 | 0.01 | 0.01 | 73 | 1012.5 |
| 20260510043001 | 65 | 360 | 0.0 | 0.9 | 0.00 | 0.01 | 0.01 | 69 | 1012.3 |
| 20260510041519 | 65 | 360 | 0.0 | 2.6 | 0.00 | 0.01 | 0.01 | 68 | 1012.2 |
| 20260510040046 | 65 | 360 | 1.7 | 2.6 | 0.00 | 0.01 | 0.01 | 64 | 1011.9 |
| 20260510034532 | 65 | 92 | 0.9 | 2.6 | 0.00 | 0.01 | 0.01 | 65 | 1011.4 |
| 20260510033042 | 66 | 360 | 0.0 | 1.7 | 0.00 | 0.01 | 0.01 | 66 | 1011.1 |
| 20260510031536 | 67 | 360 | 0.0 | 1.7 | 0.00 | 0.01 | 0.01 | 62 | 1011.4 |
| 20260510030002 | 67 | 360 | 0.9 | 3.5 | 0.00 | 0.01 | 0.01 | 56 | 1011.1 |
| 20260510024552 | 68 | 355 | 0.9 | 2.6 | 0.00 | 0.01 | 0.01 | 56 | 1010.6 |
| 20260510023013 | 68 | 360 | 1.7 | 4.3 | 0.00 | 0.01 | 0.01 | 55 | 1010.3 |
| 20260510021529 | 69 | 360 | 0.9 | 3.5 | 0.00 | 0.01 | 0.01 | 53 | 1010.0 |
| 20260510020005 | 70 | 360 | 2.6 | 5.2 | 0.00 | 0.01 | 0.01 | 52 | 1009.9 |
| 20260510014529 | 71 | 360 | 0.0 | 1.7 | 0.00 | 0.01 | 0.01 | 51 | 1009.4 |
| 20260510013020 | 72 | 360 | 0.9 | 4.3 | 0.00 | 0.01 | 0.01 | 49 | 1009.2 |
| 20260510011515 | 72 | 360 | 4.3 | 8.7 | 0.00 | 0.01 | 0.01 | 48 | 1008.9 |
| 20260510010034 | 74 | 360 | 4.3 | 7.8 | 0.00 | 0.01 | 0.01 | 47 | 1008.8 |
| 20260510004523 | 75 | 360 | 5.2 | 12.2 | 0.00 | 0.01 | 0.01 | 47 | 1008.4 |
| 20260510003003 | 77 | 360 | 0.9 | 2.6 | 0.00 | 0.01 | 0.01 | 61 | 1007.9 |
| 20260510001600 | 78 | 360 | 0.0 | 0.0 | 0.00 | 0.01 | 0.01 | 59 | 1007.6 |
| 20260510000046 | 78 | 360 | 0.0 | 0.0 | 0.00 | 0.01 | 0.01 | 54 | 1007.5 |
| 20260509234507 | 79 | 360 | 0.0 | 0.9 | 0.00 | 0.01 | 0.01 | 55 | 1007.5 |
| 20260509233013 | 79 | 360 | 0.0 | 1.7 | 0.00 | 0.01 | 0.01 | 56 | 1007.4 |
| 20260509231629 | 80 | 360 | 0.0 | 1.7 | 0.00 | 0.01 | 0.01 | 56 | 1007.4 |
| 20260509230011 | 81 | 360 | 0.0 | 1.7 | 0.00 | 0.01 | 0.01 | 50 | 1007.5 |
| 20260509224538 | 81 | 360 | 0.0 | 1.7 | 0.00 | 0.01 | 0.01 | 47 | 1007.5 |
| 20260509223111 | 82 | 360 | 0.0 | 1.7 | 0.00 | 0.01 | 0.01 | 44 | 1007.3 |
| 20260509221540 | 82 | 360 | 0.0 | 1.7 | 0.00 | 0.01 | 0.01 | 47 | 1007.3 |
| 20260509220043 | 82 | 360 | 0.0 | 2.6 | 0.00 | 0.01 | 0.01 | 44 | 1007.3 |
| 20260509214541 | 83 | 360 | 0.0 | 3.5 | 0.00 | 0.01 | 0.01 | 42 | 1007.4 |
| 20260509213057 | 84 | 360 | 0.9 | 5.2 | 0.00 | 0.01 | 0.01 | 38 | 1007.4 |
| 20260509211550 | 84 | 360 | 0.9 | 4.3 | 0.00 | 0.01 | 0.01 | 40 | 1007.4 |
| 20260509204552 | 84 | 360 | 1.7 | 4.3 | 0.00 | 0.01 | 0.01 | 41 | 1007.6 |